Time,TemperatureF,DewpointF,PressureIn,WindDirection,WindDirectionDegrees,WindSpeedMPH,WindSpeedGustMPH,Humidity,HourlyPrecipIn,Conditions,Clouds,dailyrainin,SoftwareType,DateUTC
2013-06-10 00:05:00,73.4,69.0,29.92,ENE,68,4.0,4.0,86,0.00,,,1.27,weatherlink.com 1.10,2013-06-10 05:05:00,
2013-06-10 00:21:00,73.9,69.0,29.92,ENE,68,2.0,5.0,83,0.00,,,1.27,weatherlink.com 1.10,2013-06-10 05:21:00,
2013-06-10 00:34:00,73.7,69.0,29.92,ENE,68,1.0,3.0,84,0.00,,,1.27,weatherlink.com 1.10,2013-06-10 05:34:00,
2013-06-10 00:49:00,73.4,69.0,29.92,ENE,68,2.0,3.0,86,0.00,,,1.27,weatherlink.com 1.10,2013-06-10 05:49:00,
2013-06-10 01:04:00,73.2,69.0,29.92,ENE,68,2.0,3.0,85,0.00,,,0.00,weatherlink.com 1.10,2013-06-10 06:04:00,
2013-06-10 01:35:00,72.6,69.0,29.92,ENE,68,1.0,5.0,87,0.00,,,0.00,weatherlink.com 1.10,2013-06-10 06:35:00,
2013-06-10 01:54:00,72.3,69.0,29.92,ENE,68,3.0,5.0,88,0.00,,,0.00,weatherlink.com 1.10,2013-06-10 06:54:00,
2013-06-10 02:05:00,72.5,69.0,29.92,ENE,68,3.0,4.0,88,0.00,,,0.00,weatherlink.com 1.10,2013-06-10 07:05:00,
2013-06-10 02:20:00,72.3,69.0,29.92,East,87,3.0,5.0,88,0.00,,,0.00,weatherlink.com 1.10,2013-06-10 07:20:00,
2013-06-10 02:35:00,71.9,68.0,29.92,East,87,2.0,3.0,88,0.00,,,0.00,weatherlink.com 1.10,2013-06-10 07:35:00,
2013-06-10 02:50:00,71.8,69.0,29.92,East,87,2.0,4.0,89,0.00,,,0.00,weatherlink.com 1.10,2013-06-10 07:50:00,
2013-06-10 03:05:00,71.5,68.0,29.91,East,87,2.0,5.0,89,0.00,,,0.00,weatherlink.com 1.10,2013-06-10 08:05:00,
2013-06-10 03:20:00,71.2,68.0,29.91,East,87,0.0,1.0,90,0.00,,,0.00,weatherlink.com 1.10,2013-06-10 08:20:00,
2013-06-10 03:35:00,70.6,68.0,29.92,East,87,0.0,4.0,91,0.00,,,0.00,weatherlink.com 1.10,2013-06-10 08:35:00,
2013-06-10 03:50:00,70.9,69.0,29.92,ESE,102,4.0,7.0,92,0.00,,,0.00,weatherlink.com 1.10,2013-06-10 08:50:00,
2013-06-10 04:05:00,71.1,68.0,29.92,ESE,111,0.0,5.0,91,0.00,,,0.00,weatherlink.com 1.10,2013-06-10 09:05:00,
2013-06-10 04:20:00,70.6,68.0,29.91,ESE,111,0.0,1.0,92,0.00,,,0.00,weatherlink.com 1.10,2013-06-10 09:20:00,
2013-06-10 04:35:00,70.1,68.0,29.92,ESE,111,1.0,1.0,92,0.00,,,0.00,weatherlink.com 1.10,2013-06-10 09:35:00,
2013-06-10 04:50:00,69.8,68.0,29.92,ESE,111,0.0,2.0,93,0.00,,,0.00,weatherlink.com 1.10,2013-06-10 09:50:00,
2013-06-10 05:05:00,69.2,67.0,29.92,ESE,111,0.0,0.0,93,0.00,,,0.00,weatherlink.com 1.10,2013-06-10 10:05:00,
2013-06-10 05:20:00,69.6,68.0,29.93,ESE,111,0.0,5.0,94,0.00,,,0.00,weatherlink.com 1.10,2013-06-10 10:20:00,
2013-06-10 05:35:00,69.5,68.0,29.93,ESE,111,0.0,2.0,94,0.00,,,0.00,weatherlink.com 1.10,2013-06-10 10:35:00,
2013-06-10 05:50:00,69.1,67.0,29.93,ESE,111,1.0,1.0,94,0.00,,,0.00,weatherlink.com 1.10,2013-06-10 10:50:00,
2013-06-10 06:05:00,68.8,67.0,29.93,ESE,111,0.0,2.0,94,0.00,,,0.00,weatherlink.com 1.10,2013-06-10 11:05:00,
2013-06-10 06:20:00,68.4,67.0,29.93,ESE,111,0.0,0.0,94,0.00,,,0.00,weatherlink.com 1.10,2013-06-10 11:20:00,
2013-06-10 06:36:00,68.1,66.0,29.94,ESE,111,0.0,1.0,94,0.00,,,0.00,weatherlink.com 1.10,2013-06-10 11:36:00,
2013-06-10 06:51:00,68.2,67.0,29.95,ESE,111,0.0,0.0,95,0.00,,,0.00,weatherlink.com 1.10,2013-06-10 11:51:00,
2013-06-10 07:06:00,69.0,68.0,29.95,ESE,111,0.0,0.0,95,0.00,,,0.00,weatherlink.com 1.10,2013-06-10 12:06:00,
2013-06-10 07:21:00,69.8,68.0,29.95,ESE,111,0.0,0.0,95,0.00,,,0.00,weatherlink.com 1.10,2013-06-10 12:21:00,
2013-06-10 07:36:00,71.1,69.0,29.95,ESE,111,0.0,2.0,94,0.00,,,0.00,weatherlink.com 1.10,2013-06-10 12:36:00,
2013-06-10 07:51:00,73.0,70.0,29.95,ESE,111,1.0,3.0,91,0.00,,,0.00,weatherlink.com 1.10,2013-06-10 12:51:00,
2013-06-10 08:06:00,74.5,71.0,29.95,ESE,111,0.0,3.0,87,0.00,,,0.00,weatherlink.com 1.10,2013-06-10 13:06:00,
2013-06-10 08:21:00,76.1,71.0,29.95,ESE,115,1.0,5.0,85,0.00,,,0.00,weatherlink.com 1.10,2013-06-10 13:21:00,
2013-06-10 08:36:00,77.2,72.0,29.95,ESE,119,5.0,6.0,84,0.00,,,0.00,weatherlink.com 1.10,2013-06-10 13:36:00,
2013-06-10 08:51:00,78.5,72.0,29.95,SSE,159,2.0,6.0,81,0.00,,,0.00,weatherlink.com 1.10,2013-06-10 13:51:00,
2013-06-10 09:06:00,80.1,73.0,29.95,SSW,208,1.0,8.0,78,0.00,,,0.00,weatherlink.com 1.10,2013-06-10 14:06:00,
2013-06-10 09:21:00,81.1,72.0,29.95,SW,214,2.0,8.0,74,0.00,,,0.00,weatherlink.com 1.10,2013-06-10 14:21:00,
2013-06-10 09:36:00,81.9,72.0,29.95,SW,224,0.0,9.0,72,0.00,,,0.00,weatherlink.com 1.10,2013-06-10 14:36:00,
2013-06-10 09:51:00,83.2,73.0,29.95,SW,216,1.0,7.0,71,0.00,,,0.00,weatherlink.com 1.10,2013-06-10 14:51:00,
2013-06-10 10:06:00,84.3,73.0,29.95,SW,224,6.0,8.0,68,0.00,,,0.00,weatherlink.com 1.10,2013-06-10 15:06:00,
2013-06-10 10:21:00,84.3,71.0,29.95,WSW,252,2.0,8.0,65,0.00,,,0.00,weatherlink.com 1.10,2013-06-10 15:21:00,
2013-06-10 10:51:00,85.4,71.0,29.95,SW,216,5.0,7.0,63,0.00,,,0.00,weatherlink.com 1.10,2013-06-10 15:51:00,
2013-06-10 11:06:00,85.6,72.0,29.95,SSW,208,1.0,6.0,63,0.00,,,0.00,weatherlink.com 1.10,2013-06-10 16:06:00,
2013-06-10 11:21:00,86.4,72.0,29.95,SW,230,7.0,7.0,63,0.00,,,0.00,weatherlink.com 1.10,2013-06-10 16:21:00,
2013-06-10 11:36:00,87.8,73.0,29.95,WSW,253,3.0,8.0,62,0.00,,,0.00,weatherlink.com 1.10,2013-06-10 16:36:00,
2013-06-10 11:51:00,88.4,71.0,29.95,WSW,246,2.0,6.0,57,0.00,,,0.00,weatherlink.com 1.10,2013-06-10 16:51:00,
2013-06-10 12:06:00,88.7,71.0,29.95,SSW,202,2.0,9.0,57,0.00,,,0.00,weatherlink.com 1.10,2013-06-10 17:06:00,
2013-06-10 12:21:00,89.0,71.0,29.94,South,190,1.0,9.0,56,0.00,,,0.00,weatherlink.com 1.10,2013-06-10 17:21:00,
2013-06-10 12:36:00,89.8,70.0,29.94,SSE,159,6.0,10.0,53,0.00,,,0.00,weatherlink.com 1.10,2013-06-10 17:36:00,
2013-06-10 12:52:00,90.8,72.0,29.94,SSE,162,1.0,7.0,54,0.00,,,0.00,weatherlink.com 1.10,2013-06-10 17:52:00,
2013-06-10 13:06:00,91.1,71.0,29.93,SE,130,1.0,8.0,52,0.00,,,0.00,weatherlink.com 1.10,2013-06-10 18:06:00,
2013-06-10 13:22:00,91.0,71.0,29.93,SSE,149,8.0,8.0,52,0.00,,,0.00,weatherlink.com 1.10,2013-06-10 18:22:00,
2013-06-10 13:37:00,91.7,72.0,29.92,SSE,150,0.0,7.0,53,0.00,,,0.00,weatherlink.com 1.10,2013-06-10 18:37:00,
2013-06-10 13:52:00,92.6,71.0,29.92,SSW,206,6.0,10.0,49,0.00,,,0.00,weatherlink.com 1.10,2013-06-10 18:52:00,
2013-06-10 14:07:00,92.7,69.0,29.91,SSE,147,5.0,9.0,46,0.00,,,0.00,weatherlink.com 1.10,2013-06-10 19:07:00,
2013-06-10 14:22:00,93.6,69.0,29.91,South,171,4.0,9.0,45,0.00,,,0.00,weatherlink.com 1.10,2013-06-10 19:22:00,
2013-06-10 14:37:00,94.1,67.0,29.91,South,172,6.0,11.0,41,0.00,,,0.00,weatherlink.com 1.10,2013-06-10 19:37:00,
2013-06-10 14:52:00,94.4,68.0,29.90,SE,126,2.0,10.0,42,0.00,,,0.00,weatherlink.com 1.10,2013-06-10 19:52:00,
2013-06-10 15:07:00,94.2,65.0,29.90,SE,143,2.0,12.0,38,0.00,,,0.00,weatherlink.com 1.10,2013-06-10 20:07:00,
2013-06-10 15:22:00,94.5,67.0,29.90,SSE,161,4.0,13.0,40,0.00,,,0.00,weatherlink.com 1.10,2013-06-10 20:22:00,
2013-06-10 15:37:00,95.0,66.0,29.89,SE,134,7.0,10.0,39,0.00,,,0.00,weatherlink.com 1.10,2013-06-10 20:37:00,
2013-06-10 15:52:00,94.7,63.0,29.89,SSE,166,6.0,10.0,35,0.00,,,0.00,weatherlink.com 1.10,2013-06-10 20:52:00,
2013-06-10 16:07:00,95.3,64.0,29.89,ESE,118,7.0,11.0,35,0.00,,,0.00,weatherlink.com 1.10,2013-06-10 21:07:00,
2013-06-10 16:22:00,95.5,64.0,29.88,SE,145,2.0,10.0,35,0.00,,,0.00,weatherlink.com 1.10,2013-06-10 21:22:00,
2013-06-10 16:37:00,95.6,63.0,29.88,ESE,115,6.0,12.0,34,0.00,,,0.00,weatherlink.com 1.10,2013-06-10 21:37:00,
2013-06-10 16:52:00,95.2,60.0,29.87,SE,129,6.0,14.0,31,0.00,,,0.00,weatherlink.com 1.10,2013-06-10 21:52:00,
2013-06-10 17:07:00,95.3,56.0,29.87,SE,143,7.0,13.0,27,0.00,,,0.00,weatherlink.com 1.10,2013-06-10 22:07:00,
2013-06-10 17:22:00,95.8,60.0,29.87,SSE,152,4.0,8.0,30,0.00,,,0.00,weatherlink.com 1.10,2013-06-10 22:22:00,
2013-06-10 17:37:00,95.2,57.0,29.87,SE,125,9.0,13.0,28,0.00,,,0.00,weatherlink.com 1.10,2013-06-10 22:37:00,
2013-06-10 17:52:00,94.8,56.0,29.86,SE,126,7.0,14.0,27,0.00,,,0.00,weatherlink.com 1.10,2013-06-10 22:52:00,
2013-06-10 18:07:00,94.7,58.0,29.86,SE,126,7.0,12.0,29,0.00,,,0.00,weatherlink.com 1.10,2013-06-10 23:07:00,
2013-06-10 18:27:00,94.2,54.0,29.86,SE,126,8.0,16.0,26,0.00,,,0.00,weatherlink.com 1.10,2013-06-10 23:27:00,
2013-06-10 18:37:00,93.6,56.0,29.86,SE,124,6.0,13.0,28,0.00,,,0.00,weatherlink.com 1.10,2013-06-10 23:37:00,
2013-06-10 18:52:00,93.2,58.0,29.86,East,86,8.0,10.0,31,0.00,,,0.00,weatherlink.com 1.10,2013-06-10 23:52:00,
2013-06-10 19:07:00,92.2,59.0,29.86,ESE,121,6.0,14.0,33,0.00,,,0.00,weatherlink.com 1.10,2013-06-11 00:07:00,
2013-06-10 19:22:00,91.2,61.0,29.86,ESE,122,8.0,13.0,36,0.00,,,0.00,weatherlink.com 1.10,2013-06-11 00:22:00,
2013-06-10 19:37:00,90.4,61.0,29.87,ESE,119,7.0,11.0,38,0.00,,,0.00,weatherlink.com 1.10,2013-06-11 00:37:00,
2013-06-10 19:52:00,89.2,62.0,29.87,SE,125,7.0,10.0,40,0.00,,,0.00,weatherlink.com 1.10,2013-06-11 00:52:00,
2013-06-10 20:07:00,88.0,63.0,29.87,ESE,122,6.0,8.0,43,0.00,,,0.00,weatherlink.com 1.10,2013-06-11 01:07:00,
2013-06-10 20:22:00,86.4,62.0,29.87,ESE,120,5.0,8.0,44,0.00,,,0.00,weatherlink.com 1.10,2013-06-11 01:22:00,
2013-06-10 20:37:00,84.9,63.0,29.87,ESE,122,6.0,8.0,48,0.00,,,0.00,weatherlink.com 1.10,2013-06-11 01:37:00,
2013-06-10 20:52:00,82.8,64.0,29.87,ESE,122,5.0,6.0,53,0.00,,,0.00,weatherlink.com 1.10,2013-06-11 01:52:00,
2013-06-10 21:07:00,82.9,63.0,29.87,SSE,154,4.0,6.0,52,0.00,,,0.00,weatherlink.com 1.10,2013-06-11 02:07:00,
2013-06-10 21:22:00,83.4,64.0,29.88,South,172,2.0,7.0,52,0.00,,,0.00,weatherlink.com 1.10,2013-06-11 02:22:00,
2013-06-10 21:37:00,81.2,65.0,29.88,South,172,2.0,4.0,58,0.00,,,0.00,weatherlink.com 1.10,2013-06-11 02:37:00,
2013-06-10 21:52:00,80.2,65.0,29.88,South,172,3.0,4.0,60,0.00,,,0.00,weatherlink.com 1.10,2013-06-11 02:52:00,
2013-06-10 22:07:00,80.6,65.0,29.89,SSE,162,1.0,5.0,60,0.00,,,0.00,weatherlink.com 1.10,2013-06-11 03:07:00,
2013-06-10 22:22:00,80.4,66.0,29.89,SSE,162,2.0,5.0,61,0.00,,,0.00,weatherlink.com 1.10,2013-06-11 03:22:00,
2013-06-10 22:37:00,80.2,65.0,29.89,SSE,162,3.0,5.0,61,0.00,,,0.00,weatherlink.com 1.10,2013-06-11 03:37:00,
2013-06-10 22:52:00,79.7,67.0,29.89,SSE,162,2.0,4.0,65,0.00,,,0.00,weatherlink.com 1.10,2013-06-11 03:52:00,
2013-06-10 23:07:00,78.2,66.0,29.90,SSE,162,2.0,3.0,67,0.00,,,0.00,weatherlink.com 1.10,2013-06-11 04:07:00,
2013-06-10 23:22:00,78.1,66.0,29.91,SSE,158,3.0,7.0,67,0.00,,,0.00,weatherlink.com 1.10,2013-06-11 04:22:00,
2013-06-10 23:37:00,78.8,68.0,29.91,South,171,6.0,8.0,69,0.00,,,0.00,weatherlink.com 1.10,2013-06-11 04:37:00,
2013-06-10 23:52:00,78.7,69.0,29.91,South,169,3.0,7.0,72,0.00,,,0.00,weatherlink.com 1.10,2013-06-11 04:52:00,